Погода в Ревякине

Россия / Тульская область     54°22′00″N   37°39′22″E
темп.,
°C
ветер,
м/с
пор.,
м/с
влажн.,
%
обл.,
%
осадки,
мм/ч
давл.,
гПа
погр.,
м
9 марта, вт
вт900:00−13ссз239437 0.0 101022
03:00−15ссз239556 0.0 101228
06:00−17ссз339729 0.0 101443
09:00−15ссз369545 0.0 1015261
12:00−12ссз468873 0.0 1017576
15:00−10сз468586 0.1 1018862
18:00−12сз3892100 0.1 1019311
21:00−15ссз3595100 0.2 1022126
10 марта, ср
ср1000:00−19ссз339895 0.0 102352
03:00−22ссз339765 0.0 102546
06:00−24ссз33970 0.0 102749
09:00−21с36950 0.0 1029240
12:00−17ссз348653 0.0 1029453
15:00−15ссз358475 0.0 1029596
18:00−19с239130 0.0 103020
21:00−22с229115 0.0 103220
11 марта, чт
чт1100:00−22с22890 0.0 103320
03:00−22ссз12860 0.0 103420
06:00−23зсз22850 0.0 103420
09:00−19зсз23870 0.0 1035104
12:00−14сз22800 0.0 1034327
15:00−11зсз228010 0.0 1034478
18:00−15зюз128951 0.0 103320
21:00−18юз228925 0.0 103420
12 марта, пт
пт1200:00−19ююз22910 0.0 103520
03:00−20ююз23930 0.0 103421
06:00−21ююз33890 0.0 103433
09:00−18ю36850 0.0 1034192
12:00−12ю48830 0.0 1033351
15:00−10ю59810 0.0 1031531
18:00−13ю511870 0.0 1030307
21:00−15ю514890 0.0 1030306
13 марта, сб
сб1300:00−14ю514810 0.0 1028335
03:00−11ю6167745 0.0 1026514
06:00−10ю71690100 0.1 1024679
09:00−8ююз81688100 0.4 1023797
12:00−6ююз81492100 1.1 1023729
15:00−3ююз71293100 1.4 1022723
18:00−3ююз61292100 0.2 1021570
21:00−4ююз5129398 0.3 1021447